Back to catalog

KITSAT B

AliveAmateur RadioSSO
NORAD 22828·PAYLOAD·🇰🇷 South Korea

Launched Sep 26, 1993 from Guiana Space Centre

Loading…

Next Passes (next 24 hours)

TLE

FreshSource: Space-Track

Epoch: Sep 14, 2026, 11:21 UTC

1 22828U 93061F   26257.47358605  .00000078  00000-0  45810-4 0  9998
2 22828  98.6772 324.8562 0010555 139.5693 220.6276 14.31819452688583

Track KITSAT B in real time with AllMySat

Download on the App Store